sat.trackr.live / text

‹ back to catalog

STARLINK-5669

NORAD 55459 · 2023-015L

PAYLOAD ACTIVE UNKNOWN

§ Identity

Operator
Country
US
Launch date
2023-02-02
Launch site
AFETR
Launch vehicle
Mass (kg)
RCS (m²)

Purposes: comms

External: N2YO · Heavens-Above · Gunter

§ Orbital elements

Epoch: 2026-05-25T00:15:03.108960Z

Period
94.27 min
Inclination
43.0038°
Eccentricity
0.0001100
Mean motion
15.27584446 rev/d
Perigee alt
482.3 km
Apogee alt
483.8 km
Semi-major
6,861.2 km
B*
-2.9110e-5
RAAN
257.7604°
Arg perigee
271.1126°
Mean anomaly
88.9599°
Rev number
18,239

§ Raw data

STARLINK-56691 55459U 23015L   26145.01045265 -.00001063  00000+0 -29110-4 0  99982 55459  43.0038 257.7604 0001100 271.1126  88.9599 15.27584446182398

JSON: /api/v1/satellites/55459 · /tle

For live sub-satellite position, see the globe view (requires WebGL).

§ Visibility from observer

Set your observer location to see the next 7 days of passes ≥ 10°. The values pass through the URL so the page stays shareable.

No JS? Fill the form by hand. The geolocation button needs JavaScript.